| time (UTC) | temp F | wind direction | speed MPH | gust MPH | rain 1hr in | rain 24hr in | rain mn in | humidity % | barometer mb |
| 20260510100015 | 66 | 88 | 0.0 | 0.0 | 0.00 | 0.00 | 0.00 | 95 | 1014.8 |
| 20260510094523 | 66 | 86 | 0.0 | 1.0 | 0.00 | 0.00 | 0.00 | 95 | 1014.6 |
| 20260510093023 | 66 | 133 | 0.0 | 0.0 | 0.00 | 0.00 | 0.00 | 95 | 1014.2 |
| 20260510091517 | 66 | 133 | 0.0 | 0.0 | 0.00 | 0.00 | 0.00 | 94 | 1013.7 |
| 20260510090014 | 66 | 133 | 0.0 | 3.0 | 0.00 | 0.00 | 0.00 | 94 | 1013.2 |
| 20260510084516 | 67 | 95 | 0.0 | 0.0 | 0.00 | 0.00 | 0.00 | 94 | 1013.4 |
| 20260510083021 | 67 | 95 | 0.0 | 0.0 | 0.00 | 0.00 | 0.00 | 94 | 1013.5 |
| 20260510081535 | 67 | 133 | 0.0 | 0.0 | 0.00 | 0.00 | 0.00 | 93 | 1012.8 |
| 20260510080013 | 67 | 133 | 0.0 | 0.0 | 0.00 | 0.00 | 0.00 | 92 | 1012.1 |
| 20260510074517 | 68 | 133 | 0.0 | 0.0 | 0.00 | 0.00 | 0.00 | 92 | 1011.6 |
| 20260510073004 | 68 | 87 | 0.0 | 2.0 | 0.00 | 0.00 | 0.00 | 92 | 1011.3 |
| 20260510071510 | 68 | 138 | 1.0 | 4.0 | 0.00 | 0.00 | 0.00 | 92 | 1011.3 |
| 20260510070011 | 69 | 123 | 0.0 | 0.0 | 0.00 | 0.00 | 0.00 | 91 | 1011.9 |
| 20260510064537 | 69 | 123 | 0.0 | 0.0 | 0.00 | 0.01 | 0.00 | 90 | 1012.2 |
| 20260510063020 | 70 | 123 | 0.0 | 1.0 | 0.00 | 0.01 | 0.00 | 89 | 1012.5 |
| 20260510061505 | 70 | 148 | 0.0 | 3.0 | 0.00 | 0.01 | 0.00 | 88 | 1012.1 |
| 20260510060014 | 71 | 126 | 0.0 | 3.0 | 0.00 | 0.01 | 0.00 | 87 | 1012.0 |
| 20260510054512 | 71 | 94 | 1.0 | 6.0 | 0.00 | 0.01 | 0.00 | 87 | 1011.9 |
| 20260510053016 | 72 | 277 | 2.0 | 9.0 | 0.00 | 0.01 | 0.00 | 86 | 1011.8 |
| 20260510051520 | 73 | 153 | 1.0 | 7.0 | 0.00 | 0.01 | 0.00 | 86 | 1011.8 |
| 20260510050003 | 73 | 192 | 2.0 | 12.0 | 0.00 | 0.01 | 0.00 | 86 | 1011.6 |
| 20260510044509 | 74 | 140 | 2.0 | 8.0 | 0.00 | 0.01 | 0.01 | 87 | 1011.5 |
| 20260510043014 | 74 | 134 | 2.0 | 9.0 | 0.00 | 0.01 | 0.01 | 88 | 1011.7 |
| 20260510041517 | 75 | 119 | 1.0 | 11.0 | 0.00 | 0.01 | 0.01 | 87 | 1011.8 |
| 20260510040022 | 75 | 103 | 3.0 | 12.0 | 0.00 | 0.01 | 0.01 | 87 | 1011.9 |
| 20260510034507 | 76 | 154 | 3.0 | 8.0 | 0.00 | 0.01 | 0.01 | 87 | 1011.8 |
| 20260510033011 | 76 | 102 | 1.0 | 11.0 | 0.00 | 0.01 | 0.01 | 86 | 1011.8 |
| 20260510031516 | 77 | 156 | 1.0 | 8.0 | 0.00 | 0.01 | 0.01 | 85 | 1011.5 |
| 20260510030019 | 77 | 64 | 2.0 | 7.0 | 0.00 | 0.01 | 0.01 | 83 | 1011.2 |
| 20260510024530 | 77 | 136 | 1.0 | 12.0 | 0.00 | 0.01 | 0.01 | 83 | 1011.1 |
| 20260510023010 | 76 | 105 | 0.0 | 1.0 | 0.00 | 0.01 | 0.01 | 83 | 1010.9 |
| 20260510021512 | 76 | 103 | 0.0 | 0.0 | 0.00 | 0.01 | 0.01 | 83 | 1010.9 |
| 20260510020016 | 77 | 103 | 0.0 | 0.0 | 0.00 | 0.01 | 0.01 | 81 | 1010.7 |
| 20260510014527 | 78 | 103 | 0.0 | 0.0 | 0.00 | 0.01 | 0.01 | 80 | 1010.4 |
| 20260510013024 | 79 | 103 | 0.0 | 0.0 | 0.00 | 0.01 | 0.01 | 78 | 1010.2 |
| 20260510011512 | 80 | 103 | 0.0 | 0.0 | 0.00 | 0.01 | 0.01 | 76 | 1009.8 |
| 20260510010011 | 81 | 138 | 0.0 | 0.0 | 0.00 | 0.01 | 0.01 | 74 | 1009.7 |
| 20260510004520 | 82 | 138 | 0.0 | 0.0 | 0.00 | 0.01 | 0.01 | 72 | 1009.5 |
| 20260510003027 | 83 | 139 | 0.0 | 5.0 | 0.00 | 0.01 | 0.01 | 70 | 1009.4 |
| 20260510001524 | 83 | 112 | 0.0 | 3.0 | 0.00 | 0.01 | 0.01 | 69 | 1009.3 |
| 20260510000030 | 85 | 133 | 0.0 | 4.0 | 0.00 | 0.01 | 0.01 | 65 | 1009.1 |
| 20260509234533 | 86 | 144 | 2.0 | 5.0 | 0.00 | 0.01 | 0.01 | 62 | 1009.0 |
| 20260509233034 | 86 | 124 | 1.0 | 3.0 | 0.00 | 0.01 | 0.01 | 62 | 1008.8 |
| 20260509231527 | 87 | 265 | 0.0 | 1.0 | 0.00 | 0.01 | 0.01 | 62 | 1008.8 |
| 20260509230024 | 87 | 265 | 0.0 | 1.0 | 0.00 | 0.01 | 0.01 | 59 | 1008.8 |
| 20260509224531 | 87 | 254 | 0.0 | 3.0 | 0.00 | 0.01 | 0.01 | 63 | 1008.9 |
| 20260509223019 | 87 | 147 | 1.0 | 3.0 | 0.00 | 0.01 | 0.01 | 60 | 1008.8 |
| 20260509221504 | 88 | 240 | 0.0 | 7.0 | 0.00 | 0.01 | 0.01 | 55 | 1008.9 |
| 20260509220007 | 87 | 198 | 0.0 | 7.0 | 0.00 | 0.01 | 0.01 | 57 | 1009.0 |
| 20260509214510 | 86 | 155 | 2.0 | 5.0 | 0.00 | 0.01 | 0.01 | 62 | 1008.9 |
| 20260509213016 | 86 | 131 | 1.0 | 5.0 | 0.00 | 0.01 | 0.01 | 63 | 1009.1 |
| 20260509211520 | 86 | 120 | 3.0 | 7.0 | 0.00 | 0.01 | 0.01 | 62 | 1009.3 |
| 20260509210005 | 87 | 273 | 1.0 | 8.0 | 0.00 | 0.01 | 0.01 | 61 | 1009.5 |
| 20260509204508 | 87 | 44 | 0.0 | 6.0 | 0.00 | 0.01 | 0.01 | 61 | 1009.5 |
| 20260509203013 | 86 | 237 | 1.0 | 8.0 | 0.00 | 0.01 | 0.01 | 63 | 1009.8 |
| 20260509201519 | 85 | 324 | 0.0 | 3.0 | 0.00 | 0.01 | 0.01 | 65 | 1009.9 |
| 20260509200022 | 84 | 344 | 1.0 | 4.0 | 0.00 | 0.01 | 0.01 | 66 | 1010.0 |
| 20260509194509 | 85 | 138 | 2.0 | 7.0 | 0.00 | 0.01 | 0.01 | 64 | 1010.2 |
| 20260509193012 | 84 | 122 | 0.0 | 5.0 | 0.00 | 0.01 | 0.01 | 70 | 1010.3 |
| 20260509191516 | 84 | 92 | 1.0 | 4.0 | 0.00 | 0.01 | 0.01 | 68 | 1010.4 |
| 20260509190020 | 85 | 302 | 1.0 | 7.0 | 0.00 | 0.01 | 0.01 | 67 | 1010.5 |
| 20260509184532 | 84 | 92 | 1.0 | 5.0 | 0.00 | 0.01 | 0.01 | 68 | 1010.6 |
| 20260509183031 | 83 | 196 | 0.0 | 5.0 | 0.00 | 0.01 | 0.01 | 68 | 1010.8 |
| 20260509181517 | 83 | 5 | 0.0 | 10.0 | 0.00 | 0.01 | 0.01 | 70 | 1011.0 |
| 20260509180020 | 82 | 163 | 2.0 | 8.0 | 0.00 | 0.01 | 0.01 | 71 | 1011.2 |
| 20260509174520 | 82 | 244 | 1.0 | 7.0 | 0.00 | 0.01 | 0.01 | 72 | 1011.3 |
| 20260509173029 | 81 | 114 | 0.0 | 9.0 | 0.00 | 0.01 | 0.01 | 75 | 1011.5 |
| 20260509171535 | 80 | 127 | 0.0 | 7.0 | 0.00 | 0.01 | 0.01 | 77 | 1011.5 |
| 20260509170014 | 80 | 252 | 2.0 | 7.0 | 0.00 | 0.01 | 0.01 | 77 | 1011.5 |
| 20260509164521 | 80 | 142 | 1.0 | 7.0 | 0.00 | 0.01 | 0.01 | 79 | 1011.5 |
| 20260509163046 | 79 | 120 | 2.0 | 8.0 | 0.00 | 0.01 | 0.01 | 78 | 1011.6 |
| 20260509161531 | 78 | 118 | 0.0 | 4.0 | 0.00 | 0.01 | 0.01 | 81 | 1011.5 |
| 20260509160028 | 77 | 125 | 0.0 | 6.0 | 0.00 | 0.01 | 0.01 | 84 | 1011.4 |
| 20260509154518 | 75 | 225 | 0.0 | 7.0 | 0.00 | 0.01 | 0.01 | 89 | 1011.4 |
| 20260509153025 | 74 | 138 | 1.0 | 5.0 | 0.00 | 0.01 | 0.01 | 94 | 1011.4 |
| 20260509151524 | 72 | 137 | 0.0 | 2.0 | 0.00 | 0.01 | 0.01 | 95 | 1011.5 |
| 20260509150026 | 72 | 140 | 0.0 | 0.0 | 0.00 | 0.01 | 0.01 | 95 | 1011.7 |
| 20260509144526 | 72 | 160 | 0.0 | 0.0 | 0.00 | 0.01 | 0.01 | 95 | 1011.8 |
| 20260509143016 | 72 | 214 | 0.0 | 1.0 | 0.00 | 0.01 | 0.01 | 95 | 1012.0 |
| 20260509141527 | 72 | 246 | 0.0 | 1.0 | 0.00 | 0.01 | 0.01 | 95 | 1012.0 |
| 20260509140028 | 71 | 178 | 0.0 | 5.0 | 0.00 | 0.01 | 0.01 | 95 | 1011.9 |
| 20260509134526 | 71 | 182 | 0.0 | 3.0 | 0.00 | 0.01 | 0.01 | 96 | 1011.7 |
| 20260509133015 | 71 | 153 | 0.0 | 3.0 | 0.00 | 0.01 | 0.01 | 96 | 1011.7 |
| 20260509131518 | 71 | 168 | 0.0 | 1.0 | 0.00 | 0.01 | 0.01 | 97 | 1011.7 |
| 20260509130024 | 70 | 240 | 0.0 | 2.0 | 0.00 | 0.01 | 0.01 | 97 | 1011.7 |
| 20260509124507 | 70 | 236 | 0.0 | 2.0 | 0.00 | 0.01 | 0.01 | 97 | 1011.7 |
| 20260509123014 | 70 | 292 | 0.0 | 2.0 | 0.00 | 0.01 | 0.01 | 97 | 1011.5 |
| 20260509121530 | 70 | 160 | 0.0 | 3.0 | 0.00 | 0.01 | 0.01 | 97 | 1011.3 |
| 20260509120022 | 69 | 142 | 0.0 | 2.0 | 0.00 | 0.01 | 0.01 | 97 | 1011.0 |
| 20260509114546 | 69 | 136 | 0.0 | 3.0 | 0.00 | 0.01 | 0.01 | 97 | 1010.9 |
| 20260509113010 | 69 | 128 | 0.0 | 4.0 | 0.00 | 0.01 | 0.01 | 97 | 1010.8 |
| 20260509111516 | 69 | 229 | 1.0 | 8.0 | 0.00 | 0.01 | 0.01 | 96 | 1010.4 |
| 20260509110021 | 69 | 154 | 2.0 | 6.0 | 0.00 | 0.01 | 0.01 | 96 | 1009.9 |
| 20260509104522 | 69 | 122 | 1.0 | 6.0 | 0.00 | 0.01 | 0.01 | 96 | 1010.1 |
| 20260509103026 | 69 | 150 | 1.0 | 6.0 | 0.00 | 0.01 | 0.01 | 96 | 1010.1 |
| 20260509101510 | 69 | 132 | 0.0 | 4.0 | 0.00 | 0.01 | 0.01 | 96 | 1010.5 |